Current weather by "City, St" or "zip code"  
 

Current Conditions: Tampa, Tampa International Airport, FL

Fair


63.0 F

Last Updated on Oct 31 2020, 3:53 am EDT
Humidity: 73%
Wind Speed: NE 4.6 mph
Barometer 30.09 in
Dewpoint: 54.0 F
Visibility: 10.00 mi
Precip: --
Heat Index: NA
Wind Chill: 64 F
Current conditions at:

Tampa, Tampa International Airport, FL (KTPA)

Lat: 27.96139 Lon: 82.54028

Local Radar Image active severe weather and emergency alerts image image weather storm and storm spotter reports image weather observation monitoring service image
Local
Radar
Active
Alerts
Storm Reports Obs
Monitoring

Sign-up For Email & Text Message Weather Alert Notification Services



Advertise Here

Observation History for Tampa, Tampa International Airport, FL


Time Wind
(mph)
Vis
(mi)
Weather Precip (in) Temperature (F) Relative
Humidity
Wind
Chill
(F)
Heat
Index
(F)
Pressure
Air Dwpt altimeter
(in)
sea level
(mb)
Rmks
3:53 am EDT NE 4.6 10.00 Fair -- 63.0 54.0 73% 64 NA 30.09 1018.9
2:53 am EDT N 4.6 10.00 Fair -- 63.0 54.0 73% 64 NA 30.09 1019.0
1:53 am EDT NE 4.6 10.00 Fair -- 64.0 53.1 68% NA NA 30.09 1018.9
12:53 am EDT NE 5.8 10.00 Fair -- 65.0 53.1 66% NA NA 30.09 1019.0
11:53 pm EDT NE 5.8 10.00 Fair -- 66.0 52.0 61% NA NA 30.09 1019.0
10:53 pm EDT NE 6.9 10.00 Fair -- 67.0 54.0 63% NA NA 30.08 1018.6
9:53 pm EDT N 8.1 10.00 Fair -- 68.0 54.0 61% NA NA 30.07 1018.1
8:53 pm EDT N 6.9 10.00 Fair -- 67.0 55.0 66% NA NA 30.05 1017.4
7:53 pm EDT N 5.8 10.00 Fair -- 67.0 53.1 61% NA NA 30.04 1017.0
6:53 pm EDT NW 8.1 10.00 A Few Clouds -- 71.0 51.1 49% NA NA 30.02 1016.4
5:53 pm EDT NW 10.4 10.00 Fair -- 75.0 46.9 37% NA NA 30.00 1015.7
4:53 pm EDT NW 10.4 10.00 Fair -- 77.0 46.9 35% NA NA 29.99 1015.3
3:53 pm EDT NW 10.4 10.00 A Few Clouds -- 80.0 46.0 30% NA 79 29.98 1015.2
2:53 pm EDT NW 9.2 10.00 A Few Clouds -- 78.0 45.0 31% NA NA 29.99 1015.4
1:53 pm EDT NW 11.5 G 17.3 10.00 A Few Clouds -- 78.0 52.0 40% NA NA 30.00 1015.9
12:53 pm EDT NW 8.1 10.00 A Few Clouds -- 76.0 52.0 43% NA NA 30.02 1016.4
11:53 am EDT N 9.2 10.00 A Few Clouds -- 74.0 53.1 48% NA NA 30.04 1017.1
10:53 am EDT N 8.1 10.00 A Few Clouds -- 73.0 54.0 51% NA NA 30.03 1016.8
9:53 am EDT N 9.2 10.00 A Few Clouds -- 71.0 52.0 51% NA NA 30.03 1016.8
8:53 am EDT N 9.2 10.00 A Few Clouds -- 69.0 53.1 57% NA NA 30.02 1016.4
7:53 am EDT N 5.8 10.00 A Few Clouds -- 70.0 60.1 71% NA NA 29.98 1015.3
6:53 am EDT N 4.6 10.00 Partly Cloudy -- 71.0 61.0 71% NA NA 29.96 1014.6
5:53 am EDT N 0.0 10.00 A Few Clouds -- 73.0 62.1 69% NA NA 29.94 1013.9

Regional Weather Observation


Plant City, Plant City Municipal Airport, FL (KPCM)

Mostly Cloudy
61.0 F

Brooksville-Tampa Bay Regional Airport, FL (KBKV)

Fair
51.0 F

St. Petersburg/Clearwater Airport, FL (KPIE)

Mostly Cloudy
66.0 F

Tampa, Tampa International Airport, FL (KTPA)

Fair
63.0 F

Tampa, Peter O Knight Airport, FL (KTPF)

Partly Cloudy
63.0 F

Macdill Air Force Base, Fl., FL (KMCF)

Fair
63.0 F